Location: Newark
(40.4500°N, 15.1500°E)
Time: 16:13:45
(UTC+00:00)

ISS - Visible Passes

Search period start: 06 December 2019 00:00
Search period end: 16 December 2019 00:00
Orbit: 411 x 421 km, 51.6° (Epoch: 07 December)

Date Brightness Start Highest point End Pass type
(mag) Time Alt. Az. Time Alt. Az. Time Alt. Az.
06 Dec -2.0 17:28:33 10° NW 17:30:13 24° NNW 17:30:13 24° NNW visible
07 Dec -2.6 16:40:13 10° NW 16:43:09 27° NNE 16:44:04 23° NE visible
07 Dec -0.4 18:16:46 10° WNW 18:17:00 11° WNW 18:17:00 11° WNW visible
08 Dec -3.3 17:28:12 10° NW 17:31:03 60° WNW 17:31:03 60° WNW visible
09 Dec -3.7 16:39:44 10° NW 16:43:04 59° NE 16:45:21 18° ESE visible
09 Dec -0.5 18:17:24 10° W 18:18:19 13° WSW 18:18:19 13° WSW visible
10 Dec -1.7 17:28:15 10° WNW 17:31:08 27° SW 17:33:00 16° S visible
11 Dec -2.7 16:39:29 10° WNW 16:42:43 47° SW 16:45:58 10° SSE visible
13 Dec -0.6 16:39:54 10° W 16:42:08 17° SW 16:44:21 10° S visible
